This demonstration page uses our WeatherBlox Daily Observations layout. Learn more.

39.29038, -76.61219

Hourly Observations for June 10, 2019

Temp ( °F °C ) Dew Point ( °F °C ) Humidity (%) Winds ( mph kmh ) Pressure ( in mb ) Visibility ( mi km ) Precip ( " mm )
12:54 am 00:54 undefined 65 18.3 59 15 81 81 undefined N/A 30.09 1019 N/A 0 0
1:54 am 01:54 undefined 64 17.8 59 15 84 84 undefined N/A 30.09 1019 N/A 0.02 0.508
2:54 am 02:54 undefined 63 17.2 60 15.6 90 90 undefined N/A 30.06 1018 N/A 0.01 0.254
3:54 am 03:54 undefined 63 17.2 60 15.6 90 90 undefined N/A 30.03 1017 N/A 0.02 0.508
4:54 am 04:54 undefined 63 17.2 61 16.1 93 93 undefined N/A 30.03 1017 N/A 0 0
5:54 am 05:54 undefined 64 17.8 61 16.1 90 90 undefined N/A 30.03 1017 N/A 0 0
6:54 am 06:54 undefined 64 17.8 62 16.7 93 93 undefined N/A 30.03 1017 N/A 0 0
7:54 am 07:54 undefined 65 18.3 63 17.2 93 93 undefined N/A 30.03 1017 N/A 0.01 0.254
8:54 am 08:54 undefined 66 18.9 64 17.8 93 93 undefined N/A 30 1016 N/A 0.01 0.254
9:54 am 09:54 undefined 67 19.4 65 18.3 93 93 undefined N/A 30.03 1017 N/A 0.02 0.508
10:54 am 10:54 undefined 69 20.6 66 18.9 90 90 undefined N/A 30 1016 N/A 0 0
11:54 am 11:54 undefined 70 21.1 67 19.4 90 90 undefined N/A 29.97 1015 N/A 0.03 0.762
12:54 pm 12:54 undefined 71 21.7 69 20.6 94 94 undefined N/A 29.94 1014 N/A 0.02 0.508
1:54 pm 13:54 undefined 71 21.7 70 21.1 96 96 undefined N/A 29.91 1013 N/A 0.33 8.382
2:54 pm 14:54 undefined 73 22.8 71 21.7 94 94 undefined N/A 29.94 1014 N/A 0 0
3:54 pm 15:54 undefined 76 24.4 72 22.2 88 88 undefined N/A 29.88 1012 N/A 0 0
4:54 pm 16:54 undefined 77 25 70 21.1 79 79 undefined N/A 29.88 1012 N/A 0 0
5:54 pm 17:54 undefined 78 25.6 70 21.1 76 76 undefined N/A 29.85 1011 N/A 0 0
6:54 pm 18:54 undefined 78 25.6 70 21.1 76 76 undefined N/A 29.85 1011 N/A 0 0
7:54 pm 19:54 undefined 77 25 69 20.6 77 77 undefined N/A 29.85 1011 N/A 0 0
8:54 pm 20:54 undefined 75 23.9 68 20 79 79 undefined N/A 29.83 1010 N/A 0 0
9:54 pm 21:54 undefined 73 22.8 67 19.4 81 81 undefined N/A 29.85 1011 N/A 0 0
10:54 pm 22:54 undefined 73 22.8 67 19.4 81 81 undefined N/A 29.85 1011 N/A 0 0
11:54 pm 23:54 undefined 72 22.2 66 18.9 82 82 undefined N/A 29.85 1011 N/A 0 0

Powered by AerisWeather